DW0893 Weather Reports


time (UTC)temp
C
wind
direction
speed
KPH
gust
KPH
rain 1hr
cm
rain 24hr
cm
rain mn
cm
humidity
%
barometer
mb
20260506051056 7 47 3.2 11.3 0.00 0.00 0.00 81 1013.1
20260506050556 7 56 1.6 8.0 0.00 0.00 0.00 81 1013.0
20260506050104 7 0 3.2 8.0 0.00 0.00 0.00 81 1013.1
20260506045055 7 65 0.0 12.9 0.00 0.00 0.00 81 1013.0
20260506044604 7 66 1.6 12.9 0.00 0.00 0.00 81 1012.9
20260506044056 7 66 4.8 12.9 0.00 0.00 0.00 81 1013.1
20260506043555 7 71 1.6 11.3 0.00 0.00 0.00 82 1013.0
20260506043056 7 32 3.2 14.5 0.00 0.00 0.00 82 1013.0
20260506042557 7 35 3.2 16.1 0.00 0.00 0.00 82 1013.0
20260506042100 7 45 3.2 17.7 0.00 0.00 0.00 82 1013.0
20260506041607 7 43 4.8 17.7 0.00 0.00 0.00 82 1012.9
20260506041056 7 26 4.8 16.1 0.00 0.00 0.00 82 1013.1
20260506040556 7 26 1.6 19.3 0.00 0.00 0.00 82 1013.0
20260506040100 8 0 4.8 19.3 0.00 0.00 0.00 82 1013.0
20260506035556 8 43 8.0 17.7 0.00 0.00 0.00 82 1012.9
20260506035056 8 33 6.4 20.9 0.00 0.00 0.00 82 1012.9
20260506034557 8 42 4.8 20.9 0.00 0.00 0.00 82 1013.0
20260506034057 8 16 8.0 19.3 0.00 0.00 0.00 82 1012.9
20260506033557 8 37 3.2 12.9 0.00 0.00 0.00 82 1013.0
20260506033055 8 45 3.2 14.5 0.00 0.00 0.00 82 1012.9
20260506032556 8 30 3.2 14.5 0.00 0.00 0.00 82 1012.8
20260506032056 8 45 4.8 12.9 0.00 0.00 0.00 82 1012.9
20260506031558 8 0 3.2 14.5 0.00 0.00 0.00 82 1012.9
20260506031057 8 33 4.8 14.5 0.00 0.00 0.00 82 1012.9
20260506030557 8 41 1.6 17.7 0.00 0.00 0.00 82 1012.9
20260506025556 8 25 3.2 17.7 0.00 0.00 0.00 82 1012.9
20260506025100 8 7 6.4 17.7 0.00 0.00 0.00 82 1012.8
20260506024602 8 51 6.4 14.5 0.00 0.00 0.00 82 1012.9
20260506024056 8 37 1.6 14.5 0.00 0.00 0.00 83 1013.0
20260506023556 8 32 4.8 14.5 0.00 0.00 0.00 83 1012.9
20260506023108 8 27 4.8 16.1 0.00 0.00 0.00 83 1012.9
20260506022557 8 40 3.2 16.1 0.00 0.00 0.00 82 1013.0
20260506022056 8 0 8.0 16.1 0.00 0.00 0.00 82 1012.9
20260506021617 8 36 3.2 8.0 0.00 0.00 0.00 82 1012.9
20260506021057 8 0 3.2 11.3 0.00 0.00 0.00 82 1012.9
20260506020555 9 36 3.2 12.9 0.00 0.00 0.00 82 1013.0
20260506020057 9 41 1.6 12.9 0.00 0.00 0.00 82 1013.0
20260506015557 9 0 4.8 14.5 0.00 0.00 0.00 82 1013.1
20260506015100 9 39 3.2 14.5 0.00 0.00 0.00 82 1013.1
20260506014555 9 54 4.8 14.5 0.00 0.00 0.00 81 1012.9
20260506014059 9 37 4.8 14.5 0.00 0.00 0.00 81 1013.0
20260506013558 9 55 4.8 12.9 0.00 0.00 0.00 81 1013.0
20260506013109 9 51 3.2 12.9 0.00 0.00 0.00 80 1013.0
20260506012557 9 51 4.8 12.9 0.00 0.00 0.00 80 1013.0
20260506012058 9 39 3.2 11.3 0.00 0.00 0.00 80 1013.0
20260506011617 9 42 1.6 12.9 0.00 0.00 0.00 79 1013.1
20260506011057 9 47 6.4 14.5 0.00 0.00 0.00 79 1013.2
20260506010557 10 55 3.2 14.5 0.00 0.00 0.00 79 1013.2
20260506010104 10 43 3.2 14.5 0.00 0.00 0.00 79 1013.2
20260506005600 10 42 3.2 14.5 0.00 0.00 0.00 78 1013.2
20260506005057 10 42 1.6 16.1 0.00 0.00 0.00 78 1013.2
20260506004602 10 42 4.8 16.1 0.00 0.00 0.00 78 1013.2
20260506004058 10 27 6.4 14.5 0.00 0.00 0.00 77 1013.3
20260506003558 10 54 4.8 14.5 0.00 0.00 0.00 76 1013.3
20260506003058 10 51 3.2 16.1 0.00 0.00 0.00 76 1013.2
20260506002557 10 58 6.4 19.3 0.00 0.00 0.00 76 1013.2
20260506002057 10 71 6.4 19.3 0.00 0.00 0.00 76 1013.3
20260506001600 10 61 8.0 19.3 0.00 0.00 0.00 75 1013.2
20260506001058 10 55 6.4 17.7 0.00 0.00 0.00 75 1013.2
20260506000558 10 16 8.0 17.7 0.00 0.00 0.00 76 1013.2
20260506000108 10 57 8.0 17.7 0.00 0.00 0.00 76 1013.3
20260505235558 10 43 8.0 16.1 0.00 0.00 0.00 76 1013.3
20260505235057 10 23 6.4 20.9 0.00 0.00 0.00 76 1013.2
20260505234559 10 59 6.4 20.9 0.00 0.00 0.00 76 1013.1
20260505234057 10 33 6.4 17.7 0.00 0.00 0.00 76 1013.2
20260505233558 10 0 8.0 17.7 0.00 0.00 0.00 76 1013.2
20260505233108 11 45 8.0 19.3 0.00 0.00 0.00 76 1013.2
20260505232557 11 20 8.0 19.3 0.00 0.00 0.00 75 1013.1
20260505232057 11 42 8.0 17.7 0.00 0.00 0.00 75 1013.1
20260505231613 11 16 8.0 17.7 0.00 0.00 0.00 75 1013.0
20260505231056 11 36 8.0 19.3 0.00 0.00 0.00 75 1012.8
20260505230559 11 24 6.4 19.3 0.00 0.00 0.00 75 1012.9
20260505230100 11 24 4.8 19.3 0.00 0.00 0.00 76 1013.0
20260505225557 11 66 3.2 17.7 0.00 0.00 0.00 76 1013.1
20260505225057 11 71 4.8 17.7 0.00 0.00 0.00 76 1013.0
20260505224604 11 43 6.4 17.7 0.00 0.00 0.00 76 1012.9
20260505224058 11 57 4.8 14.5 0.00 0.00 0.00 76 1012.9
20260505223559 11 35 4.8 17.7 0.00 0.00 0.00 75 1012.8
20260505223058 11 43 4.8 17.7 0.00 0.00 0.00 75 1012.8
20260505222600 11 49 3.2 17.7 0.00 0.00 0.00 75 1012.7
20260505222057 11 48 6.4 17.7 0.00 0.00 0.00 75 1012.8
20260505221604 11 39 4.8 14.5 0.00 0.00 0.00 75 1012.7
20260505221056 11 47 6.4 14.5 0.00 0.00 0.00 75 1012.5
20260505220556 11 34 4.8 12.9 0.00 0.00 0.00 75 1012.6
20260505220105 11 49 3.2 9.7 0.00 0.00 0.00 75 1012.6
20260505215556 11 42 3.2 17.7 0.00 0.00 0.00 75 1012.5
20260505215056 11 43 6.4 17.7 0.00 0.00 0.00 75 1012.5
20260505214600 11 36 6.4 17.7 0.00 0.00 0.00 74 1012.6
20260505214058 12 37 4.8 17.7 0.00 0.00 0.00 73 1012.5
20260505213555 12 0 6.4 16.1 0.00 0.00 0.00 73 1012.5
20260505213111 12 65 6.4 16.1 0.00 0.00 0.00 72 1012.5
20260505212555 12 44 6.4 19.3 0.00 0.00 0.00 72 1012.6
20260505212056 12 52 8.0 19.3 0.00 0.00 0.00 71 1012.4
20260505211605 12 37 6.4 20.9 0.00 0.00 0.00 71 1012.4
20260505211057 12 21 6.4 20.9 0.00 0.00 0.00 71 1012.5
20260505210556 12 16 11.3 20.9 0.00 0.00 0.00 71 1012.4
20260505210106 12 17 6.4 17.7 0.00 0.00 0.00 71 1012.3
20260505205556 12 42 8.0 17.7 0.00 0.00 0.00 71 1012.3
20260505205056 12 45 8.0 20.9 0.00 0.00 0.00 71 1012.4
20260505204600 12 36 8.0 20.9 0.00 0.00 0.00 70 1012.4
20260505204056 12 51 6.4 20.9 0.00 0.00 0.00 71 1012.4
20260505203556 12 30 9.7 20.9 0.00 0.00 0.00 71 1012.3
20260505203126 12 11 6.4 22.5 0.00 0.00 0.00 71 1012.3
20260505202559 12 56 11.3 22.5 0.00 0.00 0.00 71 1012.2
20260505202057 12 39 9.7 19.3 0.00 0.00 0.00 71 1012.3
20260505201603 12 38 6.4 14.5 0.00 0.00 0.00 71 1012.2
20260505201056 12 38 6.4 16.1 0.00 0.00 0.00 71 1012.1
20260505200556 13 30 4.8 16.1 0.00 0.00 0.00 71 1012.2
20260505200059 13 31 3.2 12.9 0.00 0.00 0.00 70 1012.0
20260505195600 13 29 3.2 12.9 0.00 0.00 0.00 70 1012.1
20260505195059 13 0 4.8 9.7 0.00 0.00 0.00 70 1012.0
20260505194559 13 16 1.6 11.3 0.00 0.00 0.00 70 1011.8
20260505194056 13 16 1.6 11.3 0.00 0.00 0.00 70 1011.9
20260505193557 13 0 0.0 8.0 0.00 0.00 0.00 69 1011.8
20260505193057 13 0 1.6 9.7 0.00 0.00 0.00 69 1011.8
20260505192559 13 0 3.2 11.3 0.00 0.00 0.00 69 1011.8
20260505192056 13 22 1.6 11.3 0.00 0.00 0.00 69 1011.8
20260505191611 13 23 3.2 9.7 0.00 0.00 0.00 69 1011.7
20260505191056 13 30 3.2 14.5 0.00 0.00 0.00 68 1011.7
20260505190556 13 14 3.2 14.5 0.00 0.00 0.00 68 1011.6
20260505190057 13 29 3.2 14.5 0.00 0.00 0.00 68 1011.7
20260505185556 13 28 3.2 14.5 0.00 0.00 0.00 68 1011.6
20260505185058 13 10 3.2 12.9 0.00 0.00 0.00 67 1011.6
20260505184559 13 25 3.2 14.5 0.00 0.00 0.00 67 1011.6
20260505184057 13 24 4.8 14.5 0.00 0.00 0.00 67 1011.6
20260505183557 13 3 3.2 16.1 0.00 0.00 0.00 67 1011.6
20260505183058 13 1 4.8 16.1 0.00 0.00 0.00 66 1011.6
20260505182556 13 44 4.8 16.1 0.00 0.00 0.00 66 1011.5
20260505182056 13 18 6.4 16.1 0.00 0.00 0.00 66 1011.6
20260505181558 14 5 3.2 16.1 0.00 0.00 0.00 66 1011.5
20260505181056 14 342 4.8 16.1 0.00 0.00 0.00 66 1011.6
20260505180557 14 14 4.8 12.9 0.00 0.00 0.00 66 1011.6
20260505175559 13 7 1.6 14.5 0.00 0.00 0.00 67 1011.5
20260505175059 13 5 4.8 14.5 0.00 0.00 0.00 67 1011.5
20260505174605 13 20 1.6 12.9 0.00 0.00 0.00 68 1011.6
20260505174058 13 9 1.6 8.0 0.00 0.00 0.00 68 1011.5
20260505173556 13 8 0.0 8.0 0.00 0.00 0.00 68 1011.6
20260505173059 13 0 1.6 11.3 0.00 0.00 0.00 68 1011.7
20260505172556 13 1 3.2 11.3 0.00 0.00 0.00 68 1011.7
20260505172057 13 0 3.2 8.0 0.00 0.00 0.00 69 1011.7
20260505171557 13 7 1.6 8.0 0.00 0.00 0.00 69 1011.6
20260505171058 13 0 3.2 12.9 0.00 0.00 0.00 68 1011.7
20260505170556 13 9 4.8 14.5 0.00 0.00 0.00 68 1011.7
20260505170109 13 0 1.6 14.5 0.00 0.00 0.00 68 1011.7
20260505165556 14 18 4.8 14.5 0.00 0.00 0.00 68 1011.7
20260505165058 14 13 4.8 12.9 0.00 0.00 0.00 67 1011.8
20260505164555 14 8 1.6 12.9 0.00 0.00 0.00 68 1011.7
20260505164058 14 5 3.2 12.9 0.00 0.00 0.00 67 1011.8
20260505163559 14 350 3.2 11.3 0.00 0.00 0.00 67 1011.7
20260505163059 14 0 4.8 14.5 0.00 0.00 0.00 66 1011.7
20260505162559 14 24 4.8 16.1 0.00 0.00 0.00 66 1011.9
20260505162057 15 19 6.4 16.1 0.00 0.00 0.00 66 1011.8
20260505161615 15 355 8.0 16.1 0.00 0.00 0.00 65 1011.8
20260505161056 15 12 6.4 14.5 0.00 0.00 0.00 64 1011.9
20260505160556 15 4 6.4 14.5 0.00 0.00 0.00 63 1011.8
20260505153105 15 28 1.6 12.9 0.00 0.00 0.00 64 1011.8
20260505152558 15 28 4.8 12.9 0.00 0.00 0.00 63 1011.9
20260505152058 15 18 4.8 12.9 0.00 0.00 0.00 64 1011.9
20260505151605 15 36 1.6 8.0 0.00 0.00 0.00 65 1011.8
20260505151059 15 37 1.6 6.4 0.00 0.00 0.00 64 1012.0
20260505150558 14 0 1.6 6.4 0.00 0.00 0.00 64 1012.1
20260505140556 14 12 3.2 16.1 0.00 0.00 0.00 65 1012.2
20260505140104 14 11 6.4 14.5 0.00 0.00 0.00 65 1012.2
20260505124557 15 19 6.4 14.5 0.00 0.00 0.00 64 1012.4
20260505124057 15 0 3.2 8.0 0.00 0.00 0.00 64 1012.4
20260505123558 15 0 1.6 8.0 0.00 0.00 0.00 64 1012.4
20260505123059 15 0 3.2 12.9 0.00 0.00 0.00 65 1012.4
20260505122556 15 360 3.2 12.9 0.00 0.00 0.00 66 1012.4
20260505122056 15 350 3.2 14.5 0.00 0.00 0.00 65 1012.4
20260505121625 15 42 4.8 14.5 0.00 0.00 0.00 65 1012.4
20260505121056 15 9 3.2 14.5 0.00 0.00 0.00 67 1012.4
20260505120556 15 355 6.4 14.5 0.00 0.00 0.00 66 1012.4
20260505120058 15 355 6.4 16.1 0.00 0.00 0.00 68 1012.4
20260505115600 15 14 3.2 16.1 0.00 0.00 0.00 68 1012.5
20260505115058 14 5 6.4 16.1 0.00 0.00 0.00 68 1012.5
20260505114556 14 30 6.4 14.5 0.00 0.00 0.00 68 1012.6
20260505114056 14 0 1.6 14.5 0.00 0.00 0.00 71 1012.6
20260505113555 13 39 4.8 14.5 0.00 0.00 0.00 71 1012.5
20260505113058 13 355 4.8 14.5 0.00 0.00 0.00 73 1012.6
20260505112556 13 12 4.8 12.9 0.00 0.00 0.00 75 1012.7
20260505112056 12 18 3.2 9.7 0.00 0.00 0.00 75 1012.9
20260505111557 12 42 3.2 9.7 0.00 0.00 0.00 75 1012.9
20260505111056 12 43 3.2 11.3 0.00 0.00 0.00 75 1012.8
20260505110557 12 43 3.2 11.3 0.00 0.00 0.00 75 1012.9
20260505102055 12 22 4.8 14.5 0.00 0.00 0.00 77 1013.0
20260505101559 12 45 3.2 14.5 0.00 0.00 0.00 78 1013.1
20260505101055 12 43 6.4 14.5 0.00 0.00 0.00 78 1013.1
20260505100557 12 33 4.8 12.9 0.00 0.00 0.00 78 1013.0
20260505095600 12 16 1.6 12.9 0.00 0.00 0.00 79 1013.1
20260505095056 11 0 1.6 16.1 0.00 0.00 0.00 78 1013.0
20260505094601 12 53 6.4 16.1 0.00 0.00 0.00 78 1013.1
20260505094056 12 7 4.8 16.1 0.00 0.00 0.00 78 1013.2
20260505093556 12 19 4.8 12.9 0.00 0.00 0.00 79 1013.1
20260505093100 12 20 3.2 11.3 0.00 0.00 0.00 80 1013.1
20260505092601 12 38 4.8 12.9 0.00 0.00 0.00 80 1013.0
20260505092056 11 31 4.8 12.9 0.00 0.00 0.00 80 1013.1
20260505091557 11 28 1.6 9.7 0.00 0.00 0.00 80 1013.2
20260505091100 11 31 3.2 16.1 0.00 0.00 0.00 80 1013.2
20260505090556 11 32 4.8 16.1 0.00 0.00 0.00 80 1013.1
20260505090106 11 44 8.0 16.1 0.00 0.00 0.00 81 1013.3
20260505085556 11 39 4.8 14.5 0.00 0.00 0.00 81 1013.3
20260505085057 11 15 4.8 14.5 0.00 0.00 0.00 82 1013.4
20260505084559 11 25 1.6 16.1 0.00 0.00 0.00 83 1013.4
20260505084057 11 29 4.8 16.1 0.00 0.00 0.00 82 1013.3
20260505083556 11 332 6.4 12.9 0.00 0.00 0.00 83 1013.3
20260505083104 11 51 4.8 16.1 0.00 0.00 0.00 83 1013.4
20260505082556 11 27 4.8 16.1 0.00 0.00 0.00 84 1013.4
20260505082056 11 21 8.0 16.1 0.00 0.00 0.00 84 1013.3
20260505081602 11 17 3.2 16.1 0.00 0.00 0.00 84 1013.4
20260505081058 11 17 6.4 16.1 0.00 0.00 0.00 84 1013.5
20260505080558 11 33 6.4 16.1 0.00 0.00 0.00 84 1013.3
20260505075557 11 27 6.4 16.1 0.00 0.00 0.00 84 1013.4
20260505075056 11 31 4.8 14.5 0.00 0.00 0.00 84 1013.4
20260505074609 11 28 4.8 16.1 0.00 0.00 0.00 84 1013.3
20260505074059 11 24 6.4 16.1 0.00 0.00 0.00 84 1013.3
20260505073557 11 18 4.8 16.1 0.00 0.00 0.00 84 1013.3
20260505073059 11 18 4.8 16.1 0.00 0.00 0.00 85 1013.6
20260505072558 11 23 3.2 9.7 0.00 0.00 0.00 85 1013.4
20260505072055 11 0 1.6 12.9 0.00 0.00 0.00 85 1013.5
20260505071558 11 18 4.8 16.1 0.00 0.00 0.00 86 1013.5
20260505071056 11 20 3.2 16.1 0.00 0.00 0.00 86 1013.4
20260505070557 11 20 6.4 16.1 0.00 0.00 0.00 86 1013.4
20260505070059 11 39 3.2 11.3 0.00 0.00 0.00 87 1013.4
20260505065557 11 39 3.2 11.3 0.00 0.00 0.00 87 1013.5
20260505065056 11 27 3.2 9.7 0.00 0.00 0.00 88 1013.5
20260505064600 11 27 4.8 11.3 0.00 0.00 0.00 88 1013.5
20260505064056 11 28 1.6 11.3 0.00 0.00 0.00 89 1013.4
20260505063557 11 36 4.8 11.3 0.00 0.00 0.00 89 1013.5
20260505063059 10 36 3.2 9.7 0.00 0.00 0.00 90 1013.4
20260505062558 10 36 1.6 9.7 0.00 0.00 0.00 90 1013.4
20260505062058 10 35 0.0 8.0 0.00 0.00 0.00 90 1013.3
20260505061607 10 34 1.6 8.0 0.00 0.00 0.00 90 1013.3
20260505061058 10 34 0.0 8.0 0.00 0.00 0.00 90 1013.2
20260505060558 10 34 1.6 8.0 0.00 0.00 0.00 90 1013.3
20260505060103 10 0 3.2 8.0 0.00 0.00 0.00 90 1013.3
20260505055559 10 34 1.6 6.4 0.00 0.00 0.00 90 1013.3
20260505055058 10 34 1.6 6.4 0.00 0.00 0.00 90 1013.4
20260505054559 10 34 0.0 9.7 0.00 0.00 0.00 90 1013.3
20260505054058 10 0 1.6 9.7 0.00 0.00 0.00 90 1013.3
20260505053557 10 0 0.0 8.0 0.00 0.00 0.00 90 1013.4
20260505053106 10 34 3.2 8.0 0.00 0.00 0.00 90 1013.5
20260505052602 10 0 1.6 8.0 0.00 0.00 0.00 90 1013.5
20260505052056 10 0 0.0 8.0 0.00 0.00 0.00 90 1013.5